Simultaneous Nadir Overpasses (SNOs) Predictions

Prediction of SNOs between GOES-16 and TERRA Satellite Orbit:

Table of predicted SNOs for the next 14.0 days since TLE Epoch: 9/30/2023
Index Date Time (GOES-16) GOES-16 Lat,Lon TERRA Lat,Lon Distance(km) Time Diff (sec)
1 10/01/2023 02:53:10 0.06, -75.21 0.58, -72.80 274.04 80
2 10/01/2023 15:10:38 -0.06, -75.23 0.46, -77.69 280.01 80
3 10/03/2023 14:56:48 -0.06, -75.24 -0.40, -73.71 174.39 80
4 10/04/2023 03:17:06 0.06, -75.23 -0.65, -78.64 387.80 80
5 10/06/2023 02:57:55 0.05, -75.24 0.18, -74.65 67.37 80
6 10/06/2023 15:18:03 -0.05, -75.26 0.84, -79.54 486.32 80
7 10/08/2023 15:01:31 -0.04, -75.29 0.04, -75.55 30.26 80
8 10/10/2023 14:47:40 -0.04, -75.32 -0.84, -71.57 427.11 80
9 10/11/2023 03:07:57 0.04, -75.32 -0.23, -76.49 134.15 80
10 10/13/2023 02:48:45 0.04, -75.36 0.63, -72.50 324.16 80
11 10/13/2023 15:11:33 -0.04, -75.38 0.38, -77.40 228.84 80
